This is the latest recevied weather packets stored in our database for station/object KG5APU. If no packets are shown the sender has not sent any weather packets the latest 10 day(s).
| Time | Temp. | Humidity | Pressure | Rain* | Wind** | Luminosity | Snow |
|---|---|---|---|---|---|---|---|
| 1788019622 | 33.33° C | 57% | 1018.9 hPa | 0 mm | - | 592 W/m² | - |
| 1788019019 | 33.33° C | 57% | 1019.2 hPa | 0 mm | - | 563 W/m² | - |
| 1788018414 | 33.33° C | 58% | 1019.2 hPa | 0 mm | - | 537 W/m² | - |
| 1788017811 | 32.78° C | 58% | 1019.1 hPa | 0 mm | - | 509 W/m² | - |
| 1788017210 | 32.78° C | 58% | 1019.1 hPa | 0 mm | - | 479 W/m² | - |
| 1788016608 | 32.22° C | 60% | 1018.9 hPa | 0 mm | - | 449 W/m² | - |
| 1788016008 | 31.67° C | 61% | 1018.9 hPa | 0 mm | - | 421 W/m² | - |
| 1788015403 | 31.11° C | 62% | 1019 hPa | 0 mm | - | 389 W/m² | - |
| 1788014801 | 30.56° C | 64% | 1019.1 hPa | 0 mm | - | 145 W/m² | - |
| 1788014198 | 30° C | 66% | 1019.2 hPa | 0 mm | - | 95 W/m² | - |
| 1788013597 | 30° C | 65% | 1019.1 hPa | 0 mm | - | 89 W/m² | - |
| 1788012991 | 28.89° C | 68% | 1018.9 hPa | 0 mm | - | 199 W/m² | - |
| 1788012387 | 29.44° C | 66% | 1018.8 hPa | 0 mm | - | 197 W/m² | - |
| 1788011787 | 28.89° C | 68% | 1019.2 hPa | 0 mm | - | 194 W/m² | - |
| 1788011181 | 28.89° C | 69% | 1019.2 hPa | 0 mm | - | 168 W/m² | - |
| 1788010581 | 28.89° C | 70% | 1019.2 hPa | 0 mm | - | 143 W/m² | - |
| 1788009981 | 28.33° C | 71% | 1019.2 hPa | 0 mm | - | 120 W/m² | - |
| 1788009379 | 28.33° C | 72% | 1019.2 hPa | 0 mm | - | 99 W/m² | - |
| 1788008775 | 27.78° C | 73% | 1019 hPa | 0 mm | - | 80 W/m² | - |
| 1788008171 | 27.78° C | 75% | 1018.8 hPa | 0 mm | - | 62 W/m² | - |
| 1788007569 | 26.67° C | 78% | 1019 hPa | 0 mm | - | 46 W/m² | - |
| 1788006969 | 25.56° C | 81% | 1018.7 hPa | 0 mm | - | 35 W/m² | - |
| 1788006363 | 25.56° C | 81% | 1018.5 hPa | 0 mm | - | 24 W/m² | - |
| 1788005762 | 25.56° C | 81% | 1018.6 hPa | 0 mm | - | 15 W/m² | - |
| 1788005161 | 25.56° C | 80% | 1018.5 hPa | 0 mm | - | 7 W/m² | - |
* Rain latest hour (hover to see other rain measurements)
** Current wind speed in m/s (hover to see current wind gust speed)